Torna al catalogo

CHUANG XIN 20A

CX-20A

AttivoScienzaLEO
NORAD 58425·PAYLOAD·🇨🇳 China

Lanciato Nov 23, 2023 da Xichang Satellite Launch Center

Loading…

Prossimi Passaggi (prossime 24 ore)

TLE

AggiornatoSource: Space-Track

Epoca: Sep 14, 2026, 19:52 UTC

1 58425U 23181A   26257.82809541 -.00000098  00000-0  53709-4 0  9994
2 58425  49.9610 358.0036 0013840 180.1383 179.9493 13.41504009137785

Traccia CHUANG XIN 20A in tempo reale con AllMySat

Download on the App Store